DL4NBA-1 Weather Reports


Display with metric or nautical units.
time (UTC)temp
F
wind
direction
speed
MPH
gust
MPH
rain 1hr
in
rain 24hr
in
rain mn
in
humidity
%
barometer
mb
20260901200848 60 198 3.0 3.0 0.00 0.00 0.00
20260901200349 61 203 3.0 2.0 0.00 0.00 0.00
20260901195847 61 200 4.0 3.0 0.00 0.00 0.00
20260901195348 61 228 3.0 4.0 0.00 0.00 0.00
20260901194850 61 184 3.0 2.0 0.00 0.00 0.00
20260901194351 61 184 2.0 2.0 0.00 0.00 0.00
20260901193852 61 191 2.0 2.0 0.00 0.00 0.00
20260901193350 62 188 0.0 2.0 0.00 0.00 0.00
20260901192851 64 179 0.0 0.0 0.00 0.00 0.00
20260901192353 64 179 0.0 0.0 0.00 0.00 0.00
20260901191854 64 179 0.0 0.0 0.00 0.00 0.00
20260901191356 65 179 0.0 0.0 0.00 0.00 0.00
20260901185857 66 179 0.0 0.0 0.00 0.00 0.00
20260901184357 67 179 0.0 0.0 0.00 0.00 0.00
20260901183400 66 179 0.0 0.0 0.00 0.00 0.00
20260901182901 66 179 0.0 0.0 0.00 0.00 0.00
20260901182402 65 179 0.0 0.0 0.00 0.00 0.00
20260901181901 66 179 0.0 0.0 0.00 0.00 0.00
20260901181402 66 215 2.0 0.0 0.00 0.00 0.00
20260901180405 66 229 0.0 0.0 0.00 0.00 0.00
20260901175906 67 243 0.0 2.0 0.00 0.00 0.00
20260901175403 68 250 0.0 0.0 0.00 0.00 0.00
20260901174905 67 250 1.0 0.0 0.00 0.00 0.00
20260901174406 68 200 1.0 1.0 0.00 0.00 0.00
20260901173907 68 246 2.0 0.0 0.00 0.00 0.00
20260901173408 72 249 1.0 0.0 0.00 0.00 0.00
20260901172905 74 283 2.0 2.0 0.00 0.00 0.00
20260901172407 73 276 4.0 3.0 0.00 0.00 0.00
20260901171907 72 266 5.0 4.0 0.00 0.00 0.00
20260901171444 74 301 5.0 4.0 0.00 0.00 0.00
20260901171408 74 301 5.0 4.0 0.00 0.00 0.00
20260901165909 76 294 7.0 6.0 0.00 0.00 0.00
20260901165410 76 271 7.0 7.0 0.00 0.00 0.00
20260901165032 76 284 7.0 9.0 0.00 0.00 0.00
20260901164911 76 284 7.0 9.0 0.00 0.00 0.00
20260901164412 77 248 5.0 5.0 0.00 0.00 0.00
20260901163909 76 235 4.0 6.0 0.00 0.00 0.00
20260901163410 73 278 4.0 4.0 0.00 0.00 0.00
20260901162911 72 225 7.0 4.0 0.00 0.00 0.00
20260901162412 72 219 7.0 7.0 0.00 0.00 0.00
20260901161913 72 210 6.0 8.0 0.00 0.00 0.00
20260901161412 72 249 8.0 6.0 0.00 0.00 0.00
20260901160912 74 235 6.0 2.0 0.00 0.00 0.00
20260901160414 74 232 6.0 5.0 0.00 0.00 0.00
20260901154914 74 238 8.0 7.0 0.00 0.00 0.00
20260901154415 74 215 7.0 9.0 0.00 0.00 0.00
20260901153417 75 201 11.0 15.0 0.00 0.00 0.00
20260901152918 76 312 3.0 4.0 0.00 0.00 0.00
20260901152415 75 239 6.0 7.0 0.00 0.00 0.00
20260901152022 73 221 5.0 6.0 0.00 0.00 0.00
20260901151917 73 221 5.0 6.0 0.00 0.00 0.00
20260901151418 74 260 10.0 6.0 0.00 0.00 0.00
20260901150919 74 200 9.0 6.0 0.00 0.00 0.00
20260901150420 74 226 4.0 5.0 0.00 0.00 0.00
20260901145917 73 224 8.0 10.0 0.00 0.00 0.00
20260901145418 75 218 8.0 7.0 0.00 0.00 0.00
20260901144919 74 304 6.0 4.0 0.00 0.00 0.00
20260901144420 73 255 9.0 9.0 0.00 0.00 0.00
20260901143921 75 294 8.0 9.0 0.00 0.00 0.00
20260901143418 75 311 7.0 4.0 0.00 0.00 0.00
20260901142919 72 239 8.0 7.0 0.00 0.00 0.00
20260901142420 73 252 6.0 11.0 0.00 0.00 0.00
20260901142009 76 219 6.0 5.0 0.00 0.00 0.00
20260901141921 76 219 6.0 5.0 0.00 0.00 0.00
20260901141422 76 184 8.0 8.0 0.00 0.00 0.00
20260901140920 75 173 6.0 4.0 0.00 0.00 0.00
20260901140421 72 229 9.0 6.0 0.00 0.00 0.00
20260901135922 76 218 7.0 6.0 0.00 0.00 0.00
20260901135423 75 262 6.0 9.0 0.00 0.00 0.00
20260901134924 75 252 2.0 5.0 0.00 0.00 0.00
20260901134422 74 179 9.0 8.0 0.00 0.00 0.00
20260901133923 73 288 5.0 4.0 0.00 0.00 0.00
20260901133424 73 278 9.0 9.0 0.00 0.00 0.00
20260901132925 76 255 5.0 6.0 0.00 0.00 0.00
20260901132426 75 335 6.0 4.0 0.00 0.00 0.00
20260901131923 73 200 8.0 9.0 0.00 0.00 0.00
20260901131424 73 231 9.0 9.0 0.00 0.00 0.00
20260901130926 73 271 9.0 10.0 0.00 0.00 0.00
20260901130427 73 181 4.0 3.0 0.00 0.00 0.00
20260901125928 74 232 6.0 9.0 0.00 0.00 0.00
20260901124927 75 307 6.0 7.0 0.00 0.00 0.00
20260901124429 75 287 8.0 11.0 0.00 0.00 0.00
20260901123930 74 285 8.0 10.0 0.00 0.00 0.00
20260901123431 74 294 9.0 6.0 0.00 0.00 0.00
20260901122928 75 232 6.0 4.0 0.00 0.00 0.00
20260901122429 76 250 5.0 7.0 0.00 0.00 0.00
20260901121431 76 259 5.0 7.0 0.00 0.00 0.00
20260901120429 73 248 5.0 9.0 0.00 0.00 0.00
20260901115931 74 249 6.0 4.0 0.00 0.00 0.00
20260901115432 74 193 7.0 13.0 0.00 0.00 0.00
20260901114933 74 222 8.0 4.0 0.00 0.00 0.00
20260901114435 74 281 6.0 3.0 0.00 0.00 0.00
20260901113933 73 249 8.0 5.0 0.00 0.00 0.00
20260901113434 73 228 5.0 9.0 0.00 0.00 0.00
20260901112936 74 288 6.0 6.0 0.00 0.00 0.00
20260901112437 70 221 5.0 10.0 0.00 0.00 0.00
20260901111938 71 259 6.0 3.0 0.00 0.00 0.00
20260901111436 71 219 7.0 8.0 0.00 0.00 0.00
20260901110937 69 221 6.0 9.0 0.00 0.00 0.00
20260901110438 70 242 6.0 7.0 0.00 0.00 0.00
20260901105940 72 260 9.0 10.0 0.00 0.00 0.00
20260901105441 71 226 9.0 5.0 0.00 0.00 0.00
20260901104940 71 239 9.0 10.0 0.00 0.00 0.00
20260901104441 70 242 8.0 10.0 0.00 0.00 0.00
20260901103942 70 256 8.0 5.0 0.00 0.00 0.00
20260901103444 70 205 8.0 5.0 0.00 0.00 0.00
20260901102945 71 229 9.0 5.0 0.00 0.00 0.00
20260901102442 70 238 7.0 9.0 0.00 0.00 0.00
20260901101944 69 262 7.0 9.0 0.00 0.00 0.00
20260901101445 71 273 10.0 9.0 0.00 0.00 0.00
20260901100448 71 246 9.0 9.0 0.00 0.00 0.00
20260901095945 69 218 7.0 6.0 0.00 0.00 0.00
20260901095447 70 259 8.0 8.0 0.00 0.00 0.00
20260901094948 71 273 11.0 12.0 0.00 0.00 0.00
20260901094449 69 284 9.0 7.0 0.00 0.00 0.00
20260901093951 70 300 11.0 10.0 0.00 0.00 0.00
20260901093449 71 205 12.0 7.0 0.00 0.00 0.00
20260901092452 70 260 8.0 9.0 0.00 0.00 0.00
20260901091953 69 301 8.0 6.0 0.00 0.00 0.00
20260901091455 69 215 10.0 11.0 0.00 0.00 0.00
20260901090953 69 252 4.0 7.0 0.00 0.00 0.00
20260901090455 68 270 8.0 5.0 0.00 0.00 0.00
20260901085457 69 278 4.0 3.0 0.00 0.00 0.00
20260901084958 68 260 13.0 8.0 0.00 0.00 0.00
20260901084456 67 263 10.0 7.0 0.00 0.00 0.00
20260901083957 68 257 7.0 7.0 0.00 0.00 0.00
20260901083459 66 233 8.0 9.0 0.00 0.00 0.00
20260901083000 66 277 7.0 6.0 0.00 0.00 0.00
20260901081959 66 273 6.0 8.0 0.00 0.00 0.00
20260901081501 67 211 4.0 4.0 0.00 0.00 0.00
20260901081002 68 246 5.0 6.0 0.00 0.00 0.00
20260901080504 67 226 5.0 5.0 0.00 0.00 0.00
20260901080005 66 224 4.0 5.0 0.00 0.00 0.00
20260901075503 66 243 7.0 8.0 0.00 0.00 0.00
20260901075004 65 231 5.0 1.0 0.00 0.00 0.00
20260901074506 65 276 3.0 3.0 0.00 0.00 0.00
20260901074007 65 222 2.0 4.0 0.00 0.00 0.00
20260901073509 64 269 3.0 6.0 0.00 0.00 0.00
20260901072509 63 233 6.0 5.0 0.00 0.00 0.00
20260901072011 64 181 2.0 5.0 0.00 0.00 0.00
20260901071512 63 211 3.0 5.0 0.00 0.00 0.00
20260901071014 63 203 6.0 5.0 0.00 0.00 0.00
20260901070512 62 179 4.0 7.0 0.00 0.00 0.00
20260901070013 62 239 3.0 5.0 0.00 0.00 0.00
20260901065016 61 233 5.0 6.0 0.00 0.00 0.00
20260901064518 61 236 6.0 6.0 0.00 0.00 0.00
20260901063518 60 165 4.0 4.0 0.00 0.00 0.00
20260901061023 58 180 2.0 1.0 0.00 0.00 0.00
20260901060524 58 173 3.0 3.0 0.00 0.00 0.00
20260901055527 58 163 2.0 2.0 0.00 0.00 0.00
20260901055026 57 207 3.0 3.0 0.00 0.00 0.00
20260901054527 57 170 2.0 0.0 0.00 0.00 0.00
20260901054029 57 200 2.0 3.0 0.00 0.00 0.00
20260901053530 56 232 3.0 4.0 0.00 0.00 0.00
20260901053032 56 210 3.0 3.0 0.00 0.00 0.00
20260901052032 55 212 2.0 3.0 0.00 0.00 0.00
20260901051534 55 221 2.0 2.0 0.00 0.00 0.00
20260901051035 55 212 2.0 2.0 0.00 0.00 0.00
20260901050034 54 198 3.0 2.0 0.00 0.00 0.00
20260901045535 54 195 3.0 3.0 0.00 0.00 0.00
20260901045037 54 190 3.0 3.0 0.00 0.00 0.00
20260901044538 54 169 3.0 2.0 0.00 0.00 0.00
20260901043040 54 194 2.0 3.0 0.00 0.00 0.00
20260901041544 54 184 2.0 3.0 0.00 0.00 0.00
20260901040543 55 155 1.0 1.0 0.00 0.00 0.00
20260901040045 55 153 1.0 1.0 0.00 0.00 0.00
20260901035547 55 181 2.0 2.0 0.00 0.00 0.00
20260901034547 55 131 1.0 2.0 0.00 0.00 0.00
20260901032050 55 201 2.0 1.0 0.00 0.00 0.00
20260901031552 55 166 2.0 2.0 0.00 0.00 0.00
20260901031053 55 163 0.0 0.0 0.00 0.00 0.00
20260901030555 55 190 2.0 1.0 0.00 0.00 0.00
20260901025554 55 218 0.0 2.0 0.00 0.00 0.00
20260901025055 55 191 3.0 1.0 0.00 0.00 0.00
20260901024557 55 222 1.0 3.0 0.00 0.00 0.00
20260901024058 56 210 3.0 5.0 0.00 0.00 0.00
20260901023559 56 162 4.0 3.0 0.00 0.00 0.00
20260901023058 56 179 5.0 4.0 0.00 0.00 0.00
20260901022600 56 177 4.0 2.0 0.00 0.00 0.00
20260901022101 56 214 2.0 5.0 0.00 0.00 0.00
20260901021602 56 228 3.0 3.0 0.00 0.00 0.00
20260901021104 57 257 4.0 2.0 0.00 0.00 0.00
20260901020600 57 246 5.0 3.0 0.00 0.00 0.00
20260901015603 57 238 3.0 3.0 0.00 0.00 0.00
20260901015105 57 221 5.0 3.0 0.00 0.00 0.00
20260901014606 57 180 4.0 2.0 0.00 0.00 0.00
20260901014104 57 218 3.0 3.0 0.00 0.00 0.00
20260901013605 57 246 2.0 3.0 0.00 0.00 0.00
20260901013107 57 245 4.0 5.0 0.00 0.00 0.00
20260901012608 57 201 3.0 5.0 0.00 0.00 0.00
20260901012109 58 221 4.0 5.0 0.00 0.00 0.00
20260901011607 58 207 4.0 3.0 0.00 0.00 0.00
20260901010112 58 235 4.0 4.0 0.00 0.00 0.00
20260901005111 58 190 2.0 3.0 0.00 0.00 0.00
20260901004612 58 150 2.0 2.0 0.00 0.00 0.00
20260901003615 59 215 3.0 4.0 0.00 0.00 0.00
20260901003117 58 163 4.0 3.0 0.00 0.00 0.00
20260901002614 59 219 4.0 7.0 0.00 0.00 0.00
20260901002116 59 195 4.0 3.0 0.00 0.00 0.00
20260901001617 59 194 2.0 5.0 0.00 0.00 0.00
20260901001119 59 224 3.0 1.0 0.00 0.00 0.00
20260901000620 59 200 3.0 2.0 0.00 0.00 0.00
20260901000119 59 173 3.0 2.0 0.00 0.00 0.00
20260831235621 59 205 2.0 4.0 0.00 0.00 0.00
20260831235122 59 214 3.0 2.0 0.00 0.00 0.00
20260831234125 59 165 3.0 2.0 0.00 0.00 0.00
20260831233126 59 181 4.0 2.0 0.00 0.00 0.00
20260831232627 59 169 3.0 2.0 0.00 0.00 0.00
20260831232129 59 180 4.0 2.0 0.00 0.00 0.00
20260831231630 59 143 3.0 1.0 0.00 0.00 0.00
20260831231128 59 180 2.0 4.0 0.00 0.00 0.00
20260831230630 59 193 2.0 2.0 0.00 0.00 0.00
20260831225633 59 152 4.0 3.0 0.00 0.00 0.00
20260831225134 59 191 5.0 4.0 0.00 0.00 0.00
20260831224632 59 193 4.0 3.0 0.00 0.00 0.00
20260831224133 59 208 6.0 5.0 0.00 0.00 0.00
20260831223635 59 257 5.0 8.0 0.00 0.00 0.00
20260831223137 59 226 5.0 4.0 0.00 0.00 0.00
20260831222136 59 187 3.0 2.0 0.00 0.00 0.00
20260831221637 59 228 2.0 4.0 0.00 0.00 0.00
20260831221139 59 197 5.0 7.0 0.00 0.00 0.00
20260831220142 59 201 7.0 5.0 0.00 0.00 0.00
20260831215142 59 190 5.0 5.0 0.00 0.00 0.00
20260831214145 60 200 4.0 6.0 0.00 0.00 0.00
20260831213646 60 201 5.0 2.0 0.00 0.00 0.00
20260831213144 60 243 3.0 2.0 0.00 0.00 0.00
20260831212147 60 167 4.0 3.0 0.00 0.00 0.00
20260831211648 60 214 5.0 2.0 0.00 0.00 0.00
20260831211150 61 240 7.0 4.0 0.00 0.00 0.00
20260831210150 61 198 7.0 8.0 0.00 0.00 0.00
20260831205651 61 228 8.0 9.0 0.00 0.00 0.00
20260831204654 61 203 6.0 5.0 0.00 0.00 0.00
20260831203654 62 238 5.0 13.0 0.00 0.00 0.00
20260831202657 62 210 5.0 3.0 0.00 0.00 0.00
20260831202159 62 210 5.0 3.0 0.00 0.00 0.00
20260831201657 62 218 4.0 2.0 0.00 0.00 0.00